Location: Unspecified
(0.0000°N, 0.0000°E)
Time: 06:55:33
(UTC+00:00)

Vanguard 2 - Pass Details

Date: 18 December 2018
Orbit: 553 x 2939 km, 32.9° (Epoch: 18 June)

Event Time Altitude Azimuth Distance (km) Brightness Sun altitude
Rises 04:52:45 0° 281° (W) 5,850 - -14.6°
Reaches altitude 10° 04:56:38 10° 274° (W) 5,114 - -13.7°
Exits shadow 04:57:15 12° 273° (W) 5,005 11.1 -13.6°
Maximum altitude 05:11:05 40° 210° (SSW) 3,773 11.0 -10.4°
Drops below altitude 10° 05:27:09 10° 146° (SE) 5,593 12.9 -6.7°
Sets 05:31:44 0° 138° (SE) 6,421 13.6 -5.7°
